Flag for Germany Weather past 2 weeks in Bingen am Rhein, Rhineland-Palatinate, Germany

Now
59 °F

Scattered clouds.


Feels Like: 58 °F
Forecast: 47 / 59 °F
Wind: 6 mph from Northwest

Location: Wiesbaden Airport

Current Time: May 25, 2015 at 10:00:26 PM

Latest Report: May 25, 2015 at 8:58 PM


Visibility: N/A

Pressure: 29.94 "Hg

Humidity: 77%

Dew point: 52 °F

Location of Bingen am RheinLocation

Historic Weather in Bingen am Rhein — Graph

°F

Bingen am Rhein temperature yesterday

Maximum temperature yesterday: 70 °F (at 4:58 PM)
Minimum temperature yesterday: 56 °F (at 6:58 AM)
Average temperature yesterday: 63 °F

Past Weeks' High & Low Weather Summary

 TemperatureHumidityPressure
High82 °F (May 12, 3:58 PM)94% (May 13, 10:59 PM)30.34 "Hg (May 13, 10:59 PM)
Low40 °F (May 22, 5:58 AM)33% (May 18, 2:58 PM)29.67 "Hg (May 19, 1:58 AM)
Average59 °F62%30.06 "Hg
* Reported May 10 8:58 PM — May 25 8:58 PM, Bingen am Rhein, Weather by CustomWeather, © 2015

Note: Actual official high and low records may vary slightly from our data, if they occured in-between our weather recording intervals... More about our weather records

Advertising

Bingen am Rhein weather history for previous 24 hours

 ConditionsComfort  
Time TempWeatherWind HumidityBarometerVisibility
8:58 PM
Mon, May 25
59 °FScattered clouds.6 mph77%29.94 "HgN/A
7:58 PM61 °FPartly sunny.2 mph72%29.93 "HgN/A
6:58 PM60 °FOvercast.3 mph76%29.93 "HgN/A
6:00 PM59 °FScattered clouds.5 mph88%29.93 "HgN/A
4:58 PM57 °FLight rain. Partly sunny.5 mph88%29.94 "HgN/A
3:58 PM62 °FLight rain. Scattered clouds.12 mph70%29.94 "HgN/A
2:58 PM64 °FOvercast.14 mph56%29.94 "HgN/A
1:58 PM70 °FScattered clouds.14 mph46%29.93 "HgN/A
1:04 PM66 °FBroken clouds.9 mph52%29.95 "HgN/A
12:58 PM66 °FBroken clouds.7 mph52%29.95 "HgN/A
11:58 AM64 °FPartly sunny.6 mph60%29.96 "HgN/A
10:58 AM61 °FPartly sunny.6 mph68%29.97 "HgN/A
9:58 AM63 °FPartly sunny.5 mph68%29.97 "HgN/A
8:58 AM61 °FBroken clouds.2 mph73%29.98 "HgN/A
7:58 AM61 °FPartly sunny.No wind77%29.98 "HgN/A
6:58 AM55 °FScattered clouds.6 mph88%29.98 "HgN/A
5:58 AM57 °FPassing clouds.6 mph86%29.98 "HgN/A
4:58 AM59 °FOvercast.5 mph77%29.98 "HgN/A
3:58 AM59 °FPassing clouds.2 mph82%29.99 "HgN/A
2:58 AM59 °FOvercast.6 mph82%29.99 "HgN/A
1:58 AM61 °FOvercast.1 mph77%29.99 "HgN/A
12:58 AM61 °FMostly cloudy.No wind74%30.01 "HgN/A
11:58 PM
Sun, May 24
62 °FMostly cloudy.6 mph70%30.02 "HgN/A
10:58 PM63 °FMostly cloudy.2 mph73%30.02 "HgN/A
Weather by CustomWeather, © 2015

See weather overviewHow to use our weather pages